Regional Weather Roundup
Issued by NWS Nashville, TN

Home | Current Version | Previous Version | Text Only | Print | Product List | Glossary On
Versions: 1 2 3 4 5 6 7 8 9 10 11 12 13 14 15 16 17 18 19 20 21 22 23 24 25 26 27 28 29 30 31 32 33 34 35 36 37 38 39 40 41 42 43 44 45 46 47 48 49 50
000
ASUS44 KOHX 210910
RWROHX
MIDDLE TENNESSEE HOURLY WEATHER ROUNDUP
NATIONAL WEATHER SERVICE NASHVILLE TN
400 AM CDT MON AUG 21 2017

NOTE: "FAIR" INDICATES FEW OR NO CLOUDS BELOW 12,000 FEET WITH
NO SIGNIFICANT WEATHER AND/OR OBSTRUCTIONS TO VISIBILITY.

* THESE REPORTS ARE NOT UNDER NWS QUALITY CONTROL AND MAY NOT
  REPORT WEATHER SUCH AS PRECIPITATION AND FOG.


TNZ005>011-023>034-057-059-062>066-078-080-211000
...NORTHERN MIDDLE TENNESSEE...

CITY           SKY/WX    TMP DP  RH WIND       PRES   REMARKS
CLARKSVILLE    PTCLDY    69  67  93 CALM      30.11F
CROSSVILLE     CLEAR     66  64  93 CALM      30.22S
GALLATIN       CLEAR     70  66  88 CALM      30.16R
DICKSON        CLEAR     70  64  81 CALM      30.12F
LEBANON        CLEAR     68  66  93 CALM      30.12S
NASHVILLE      PTCLDY    73  69  87 CALM      30.13S
PORTLAND       CLEAR     70  66  88 S6        30.12F
SMYRNA         PTCLDY    70  69  97 SE3       30.14R
SPARTA         FOG       66  66 100 CALM      30.16S VSB 3/4
WEST NASHVILLE CLEAR     72  70  94 CALM      30.10S
$$
TNZ056-058-060-061-075>077-079-093>097-211000
...SOUTHERN MIDDLE TENNESSEE...

CITY           SKY/WX    TMP DP  RH WIND       PRES   REMARKS
COLUMBIA       MOCLDY    68  68 100 CALM      30.12R
FAYETTEVILLE   CLEAR     72  68  88 CALM      30.14S
MCMINNVILLE    CLEAR     68  68 100 CALM      30.17R
MURFREESBORO   PTCLDY    71  68  90 CALM      30.13R
PULASKI        PTCLDY    68  66  94 CALM      30.13S FOG
SHELBYVILLE    CLEAR     70  70 100 CALM      30.14R
TULLAHOMA      CLEAR     70  66  88 CALM      30.17S
WINCHESTER     CLEAR     68  66  94 CALM      30.16S
$$


...KEY TO REMARKS...
VSB - VISIBILITY IN MILES
WCI - WIND CHILL INDEX
HX  - HEAT INDEX




USA.gov is the U.S. government's official web portal to all federal, state and local government web resources and services.